Regional Weather Roundup
Issued by NWS

Home | Current Version | Previous Version | Graphics & Text | Print | Product List | Glossary On
Versions: 1 2 3 4 5 6 7 8 9 10 11 12 13 14 15 16 17 18 19 20 21 22 23 24 25 26 27
000
ASUS45 KSLC 030910
RWRUT

UTAH REGIONAL WEATHER ROUNDUP
NATIONAL WEATHER SERVICE SALT LAKE CITY UT
200 AM MST SAT DEC 03 2016

UTZ001>011-023>025-031000-

NORTHERN UTAH

CITY           SKY/WX    TMP DP  RH WIND       PRES   REMARKS
BRIGHAM CITY     N/A     25  21  85 E3        30.28S
HILL AFB       CLOUDY    22  14  72 E8        30.25S WCI  12
LOGAN          PTCLDY   N/A N/A N/A SW3       30.27
OGDEN          MOCLDY    23  16  74 S10       30.25F WCI  12
SALT LAKE CITY MOCLDY    26  18  71 SE7       30.28  WCI  18
WENDOVER       CLOUDY    23  12  63 CALM      30.27F

$$

UTZ011>015-024>027-031000-

CENTRAL/NORTHEAST UTAH

CITY           SKY/WX    TMP DP  RH WIND       PRES   REMARKS
PROVO AIRPORT  PTCLDY    21  15  78 SE7       30.31R WCI  12
MOAB/CANYONLAN CLEAR     22  14  71 CALM      30.20
DELTA          PTCLDY    18  14  86 E5        30.28S WCI  11
PRICE          PTCLDY    17  10  74 N6        30.17  WCI   9
VERNAL         CLOUDY    16   9  74 NW5       30.22  WCI   9

$$

UTZ013>016-019>022-027-031000-

SOUTHERN UTAH

CITY           SKY/WX    TMP DP  RH WIND       PRES   REMARKS
BRYCE CANYON   FOG        5   2  87 N6        30.16  VSB 3/4 WCI  -6
CEDAR CITY     PTCLDY    14  10  84 E5        30.22  WCI   6
MILFORD        MOCLDY    20  15  81 N9        30.26S WCI   9
ST GEORGE      MOSUNNY   34  16  47 NE6       30.25S WCI  29
BLANDING       CLEAR     23  16  74 N6        30.19S WCI  16

$$

REGIONAL REPORTS     COLORADO/ARIZONA

CITY           SKY/WX    TMP DP  RH WIND       PRES   REMARKS
CRAIG, CO      NOT AVBL
GRAND JUNCTION NOT AVBL
RIFLE, CO      NOT AVBL
MONTROSE, CO   NOT AVBL
CORTEZ, CO     NOT AVBL
COLORADO CITY    N/A     28  19  69 N3        30.21S
PAGE, AZ       CLEAR     36   9  32 NW7       30.16R WCI  30
GRAND CANYON   NOT AVBL
KINGMAN, AZ    CLEAR     34  12  40 E10       30.12R WCI  26
FLAGSTAFF, AZ  CLEAR     25  14  63 NE15G23   30.03S WCI  13

$$

REGIONAL REPORTS    NEVADA/IDAHO/WYOMING

CITY           SKY/WX    TMP DP  RH WIND       PRES   REMARKS
LAS VEGAS, NV  CLEAR     45  10  24 N20G32    30.22S
ELY, NY        CLEAR      4   0  83 S9        30.26  WCI -10
ELKO, NV       PTCLDY    21  15  78 SW5       30.28F WCI  15
POCATELLO, ID  CLOUDY    25  18  74 SW7       30.23  WCI  17
BURLEY, ID     CLOUDY    30  19  63 SW14      30.22  WCI  19
FORT BRIDGER,    N/A     15  10  78 W13       30.16F WCI   2
EVANSTON, WY   CLOUDY     9   5  84 SW10      30.15  WCI  -5
ROCK SPRINGS,  CLOUDY    13   9  84 SW17      30.11  WCI  -4

$$




USA.gov is the U.S. government's official web portal to all federal, state and local government web resources and services.